[[{"header":{"parameterUnit":"m.s-1","parameterCategory":1,"la1":30.2991,"la2":30.254,"lo1":-89.0895,"lo2":-89.0444,"dy":0.0017,"dx":0.0017,"nx":28,"ny":28,"refTime":"2025-04-01T09:00:00:Z","depth":0,"parameterNumber":2,"parameterNumberName":"U-component_of_WINDS"},"data":[0,0,0,0,0,0,0,0,0,0,0,0,0,0,0,0,0,0,0,0,0,0,0,0,0,0,0,0,0,0,0,0,0,0,0,0,0,0,0,0,0,0,0,0,0,0,0,0,0,0,0,0,0,0,0,0,0,0,-3.2939,-3.2939,0,-3.2939,-3.2939,-3.2939,-3.2824,-3.2821,-3.2818,-3.2816,-3.2816,-3.2819,-3.2822,0,0,0,0,0,0,0,0,0,0,0,0,0,-3.2839,-3.2842,-3.2939,-3.2939,-3.2939,-3.2939,-3.2939,-3.2939,-3.2825,-3.2821,-3.2818,-3.2814,-3.2815,-3.2819,-3.2822,0,0,0,0,0,0,0,0,0,0,0,0,0,-3.2865,-3.2842,-3.2939,-3.2882,-3.2877,-3.2939,-3.2939,-3.2939,-3.2826,-3.2821,-3.2817,-3.2812,-3.2814,-3.2818,-3.2823,-3.294,0,0,-3.2836,-3.2837,0,0,0,0,0,0,0,0,-3.2864,-3.2869,-3.289,-3.2886,-3.288,-3.2877,-3.2904,-3.2939,-3.2827,-3.2845,-3.2815,-3.281,-3.284,-3.2842,-3.2852,-3.294,-3.294,-3.2836,-3.2839,-3.284,-3.2842,0,0,0,0,0,0,0,-3.2862,-3.2869,-3.2939,-3.2891,-3.2885,-3.2856,-3.2855,-3.291,-3.2868,-3.2843,-3.2835,-3.2836,-3.2837,-3.2848,-3.2851,-3.294,-3.2836,-3.284,-3.2842,-3.2844,-3.3123,-3.3128,0,0,0,0,0,0,-3.2868,-3.2868,-3.2939,-3.2939,-3.2861,-3.2862,-3.286,-3.2883,-3.2867,-3.286,-3.284,-3.2831,-3.2843,-3.2846,-3.2851,-3.2987,-3.284,-3.2844,-3.2847,-3.3118,-3.3124,-3.313,0,0,0,0,0,0,-3.2867,-3.2876,-3.2939,-3.2901,-3.2907,-3.2868,-3.2894,-3.2885,-3.2897,-3.2865,-3.2857,-3.286,-3.284,-3.2845,-3.2918,-3.2985,-3.2846,-3.285,-3.3113,-3.312,-3.3127,-3.3261,0,0,0,0,0,0,-3.2864,-3.2876,-3.292,-3.2903,-3.2909,-3.3007,-3.2899,-3.2888,-3.2904,-3.2892,-3.2881,-3.2875,-3.2837,-3.2913,-3.2923,-3.2989,-3.2854,-3.3107,-3.3116,-3.3125,-3.325,-3.3272,-3.329,0,0,0,0,0,-3.2861,-3.2958,-3.2923,-3.2932,-3.2964,-3.3011,-3.3015,-3.2968,-3.291,-3.2954,-3.2934,-3.2876,-3.2976,-3.2921,-3.2931,-3.3,-3.3102,-3.3113,-3.3124,-3.3241,-3.3267,-3.3289,0,0,0,0,0,0,-3.2984,-3.2954,-3.2916,-3.3009,-3.3014,-3.2992,-3.3046,-3.2997,-3.3018,-3.3006,-3.2948,-3.2946,-3.3029,-3.3021,-3.2961,-3.3112,-3.3029,-3.3043,-3.3114,-3.3139,-3.3159,-3.3159,-3.2857,0,0,0,0,0,-3.3022,-3.3063,-3.3035,-3.312,-3.3124,-3.3085,-3.3104,-3.3068,-3.307,-3.3071,-3.3056,-3.306,-3.3092,-3.3115,-3.3143,-3.3248,-3.3244,-3.33,-3.332,-3.3337,-3.3349,-3.3404,-3.3429,-3.3166,-3.3165,-3.3165,0,0,-3.3101,-3.309,-3.3119,-3.3145,-3.3143,-3.3187,-3.3087,-3.3138,-3.3169,-3.3078,-3.3147,-3.3136,-3.3137,-3.3227,-3.3266,-3.3223,-3.3421,-3.3351,-3.3364,-3.3368,-3.3418,-3.3443,-3.3465,-3.3173,-3.3172,-3.317,0,0,-3.3267,-3.3263,-3.3334,-3.3335,-3.3334,-3.3307,-3.3325,-3.331,-3.3299,-3.3367,-3.33,-3.3336,-3.3394,-3.3397,-3.3406,-3.3574,-3.3521,-3.3585,-3.3689,-3.3744,-3.3764,-3.3783,-3.3843,-3.3865,-3.3597,-3.3598,-3.3598,0,-3.3365,-3.3428,-3.3376,-3.3431,-3.3444,-3.3364,-3.3435,-3.3439,-3.3448,-3.3459,-3.3411,-3.3481,-3.3476,-3.3565,-3.3606,-3.3616,-3.3634,-3.3586,-3.3766,-3.3783,-3.3799,-3.3856,-3.3879,-3.3605,-3.3604,-3.3604,-3.3603,0,-3.3549,-3.3594,-3.3651,-3.3662,-3.3682,-3.3745,-3.3702,-3.3728,-3.369,-3.3669,-3.3739,-3.373,-3.3755,-3.3773,-3.3737,-3.3858,-3.3832,-3.3776,-3.3691,-3.3833,-3.3886,-3.3907,-3.3616,-3.3614,-3.3611,-3.3609,0,0,-3.3794,-3.3775,-3.3797,-3.38,-3.3794,-3.3828,-3.3887,-3.3911,-3.3935,-3.3944,-3.3992,-3.4042,-3.399,-3.4001,-3.3964,-3.4012,-3.4146,-3.395,-3.3949,-3.3987,-3.4279,-3.4322,-3.4348,-3.411,-3.4114,-3.4117,-3.4279,0,-3.3955,-3.4055,-3.401,-3.4115,-3.4156,-3.408,-3.4131,-3.4133,-3.4115,-3.4146,-3.4125,-3.4162,-3.4091,-3.4097,-3.414,-3.412,-3.4204,-3.4108,-3.4155,-3.4158,-3.4158,-3.4375,-3.442,-3.4574,-3.4299,-3.4303,-3.4305,0,-3.4157,-3.4174,-3.4284,-3.427,-3.4285,-3.4333,-3.4351,-3.4382,-3.4383,-3.4366,-3.4378,-3.433,-3.4387,-3.4303,-3.4381,-3.4317,-3.4333,-3.4326,-3.4331,-3.4334,-3.4241,-3.4385,-3.4621,-3.4645,-3.4337,-3.4334,-3.4332,0,-3.4325,-3.4376,-3.4447,-3.4453,-3.4439,-3.4474,-3.4469,-3.4465,-3.4483,-3.4499,-3.451,-3.4532,-3.4545,-3.4564,-3.4524,-3.4466,-3.4608,-3.452,-3.4596,-3.4597,-3.463,-3.4628,-3.4873,-3.464,-3.4639,-3.4639,-3.4638,0,-3.4511,-3.4581,-3.4523,-3.4567,-3.4644,-3.4591,-3.4667,-3.4655,-3.4652,-3.4692,-3.4627,-3.4667,-3.4611,-3.4645,-3.4613,-3.4683,-3.4689,-3.4677,-3.4668,-3.4684,-3.4685,-3.4694,-3.4683,-3.4645,-3.4644,-3.4642,-3.4641,0,-3.4712,-3.4676,-3.4749,-3.4729,-3.4726,-3.4783,-3.4766,-3.4806,-3.4782,-3.4835,-3.4844,-3.4808,-3.4844,-3.4805,-3.484,-3.4818,-3.4913,-3.4888,-3.4913,-3.4906,-3.4984,-3.4978,-3.5244,-3.5276,-3.5022,-3.5024,-3.5027,0,-3.4833,-3.4885,-3.4871,-3.4893,-3.4893,-3.493,-3.4947,-3.4897,-3.4918,-3.4922,-3.4962,-3.4993,-3.5015,-3.5078,-3.5054,-3.508,-3.5056,-3.5147,-3.5059,-3.5073,-3.5058,-3.5056,-3.5061,-3.5165,-3.5168,-3.5171,-3.5173,0,-3.5052,-3.5031,-3.5059,-3.5081,-3.5103,-3.5118,-3.5128,-3.515,-3.5098,-3.5125,-3.5161,-3.5179,-3.5213,-3.5245,-3.5264,-3.5259,-3.5208,-3.5201,-3.522,-3.5236,-3.5249,-3.5244,-3.4962,-3.5195,-3.5193,-3.5191,-3.519,-3.5189,-3.5217,-3.526,-3.5256,-3.5289,-3.5291,-3.5302,-3.5339,-3.532,-3.5349,-3.5374,-3.5342,-3.5388,-3.5386,-3.5406,-3.5408,-3.5443,-3.5404,-3.5431,-3.5438,-3.5446,-3.5458,-3.5243,-3.5446,-3.5445,-3.5444,-3.5444,-3.5443,0,-3.5433,-3.5427,-3.5458,-3.5473,-3.5499,-3.5448,-3.5456,-3.5481,-3.5522,-3.5525,-3.5549,-3.5591,-3.5622,-3.5601,-3.5626,-3.5659,-3.5636,-3.5667,-3.5665,-3.5665,-3.5491,-3.5472,-3.5685,-3.5685,-3.5685,-3.5685,-3.5685,-3.5685,-3.5548,-3.5618,-3.5598,-3.5668,-3.5661,-3.5705,-3.5714,-3.5723,-3.5725,-3.5776,-3.5801,-3.5787,-3.578,-3.5805,-3.5831,-3.5824,-3.5837,-3.5877,-3.5862,-3.57,-3.5677,-3.5654,-3.5636,-3.588,-3.588,-3.6032,-3.6034,-3.6035]},{"header":{"parameterUnit":"m.s-1","parameterCategory":1,"la1":30.2991,"la2":30.254,"lo1":-89.0895,"lo2":-89.0444,"dy":0.0017,"dx":0.0017,"nx":28,"ny":28,"refTime":"2025-04-01T09:00:00:Z","depth":0,"parameterNumber":3,"parameterNumberName":"V-component_of_WINDS"},"data":[0,0,0,0,0,0,0,0,0,0,0,0,0,0,0,0,0,0,0,0,0,0,0,0,0,0,0,0,0,0,0,0,0,0,0,0,0,0,0,0,0,0,0,0,0,0,0,0,0,0,0,0,0,0,0,0,0,0,-2.0722,-2.0722,0,-2.0699,-2.0699,-2.0699,-2.067,-2.067,-2.0669,-2.0669,-2.0645,-2.0645,-2.0644,0,0,0,0,0,0,0,0,0,0,0,0,0,-2.0739,-2.0739,-2.0722,-2.0722,-2.0722,-2.0699,-2.0699,-2.0699,-2.067,-2.067,-2.0669,-2.0668,-2.0645,-2.0645,-2.0644,0,0,0,0,0,0,0,0,0,0,0,0,0,-2.0726,-2.0739,-2.0722,-2.0705,-2.0703,-2.0699,-2.0699,-2.0699,-2.067,-2.067,-2.0669,-2.0668,-2.0645,-2.0645,-2.0644,-2.0656,0,0,-2.0643,-2.0643,0,0,0,0,0,0,0,0,-2.0727,-2.0725,-2.0708,-2.0706,-2.0704,-2.0687,-2.0696,-2.0684,-2.067,-2.0683,-2.0669,-2.0668,-2.0659,-2.0658,-2.0655,-2.0655,-2.0654,-2.0643,-2.0643,-2.0643,-2.0643,0,0,0,0,0,0,0,-2.0727,-2.0726,-2.0713,-2.0707,-2.0705,-2.0697,-2.0695,-2.0694,-2.0675,-2.0682,-2.0679,-2.0677,-2.0658,-2.0655,-2.0654,-2.0654,-2.0643,-2.0643,-2.0643,-2.0643,-2.0659,-2.0659,0,0,0,0,0,0,-2.0731,-2.0727,-2.0714,-2.0712,-2.0714,-2.0698,-2.0695,-2.0693,-2.0675,-2.0672,-2.0678,-2.0676,-2.0656,-2.0655,-2.0653,-2.0664,-2.0643,-2.0643,-2.0643,-2.0658,-2.0659,-2.066,0,0,0,0,0,0,-2.0732,-2.073,-2.0715,-2.0719,-2.0716,-2.0698,-2.0696,-2.0693,-2.069,-2.0672,-2.0669,-2.0678,-2.0656,-2.0654,-2.0655,-2.0663,-2.0643,-2.0642,-2.0658,-2.0659,-2.0659,-2.0686,0,0,0,0,0,0,-2.0732,-2.0731,-2.0736,-2.0719,-2.0716,-2.0718,-2.0697,-2.0693,-2.069,-2.0687,-2.0672,-2.0669,-2.0655,-2.0656,-2.0655,-2.0662,-2.0642,-2.0657,-2.0658,-2.0659,-2.0685,-2.0688,-2.0691,0,0,0,0,0,-2.0733,-2.0745,-2.0736,-2.0735,-2.0722,-2.0718,-2.0716,-2.0701,-2.069,-2.0695,-2.0683,-2.0669,-2.0662,-2.0656,-2.0655,-2.0662,-2.0656,-2.0658,-2.0659,-2.0683,-2.0687,-2.0691,0,0,0,0,0,0,-2.0763,-2.0743,-2.0733,-2.074,-2.0731,-2.0713,-2.0719,-2.0706,-2.07,-2.0698,-2.0678,-2.0675,-2.0678,-2.067,-2.0664,-2.0671,-2.0657,-2.0658,-2.0676,-2.068,-2.0683,-2.0684,-2.0642,0,0,0,0,0,-2.0771,-2.077,-2.0751,-2.0759,-2.0755,-2.0738,-2.0735,-2.0723,-2.0714,-2.071,-2.0698,-2.0689,-2.0684,-2.0681,-2.0676,-2.0683,-2.0678,-2.0687,-2.0691,-2.0693,-2.0694,-2.0695,-2.0698,-2.0664,-2.0664,-2.0664,0,0,-2.0786,-2.0775,-2.0775,-2.0765,-2.0757,-2.0755,-2.0735,-2.0734,-2.0732,-2.071,-2.071,-2.07,-2.0688,-2.0692,-2.0693,-2.0686,-2.0703,-2.0695,-2.0697,-2.0697,-2.0697,-2.07,-2.0703,-2.0665,-2.0665,-2.0665,0,0,-2.0813,-2.0805,-2.0809,-2.0801,-2.0789,-2.0776,-2.0777,-2.0761,-2.0754,-2.0754,-2.0736,-2.0733,-2.0726,-2.0717,-2.0712,-2.0733,-2.0719,-2.0732,-2.0748,-2.0749,-2.0752,-2.0754,-2.076,-2.0762,-2.0733,-2.0733,-2.0733,0,-2.0834,-2.0831,-2.0813,-2.0813,-2.0808,-2.0787,-2.079,-2.0783,-2.077,-2.0766,-2.0758,-2.0747,-2.0738,-2.0738,-2.0742,-2.0739,-2.0739,-2.0733,-2.0753,-2.0755,-2.0757,-2.0762,-2.0764,-2.0734,-2.0734,-2.0734,-2.0734,0,-2.0856,-2.0854,-2.0859,-2.0846,-2.0841,-2.0843,-2.0825,-2.0822,-2.081,-2.0798,-2.0797,-2.0784,-2.0775,-2.0774,-2.0763,-2.0772,-2.0768,-2.0756,-2.0742,-2.0762,-2.0766,-2.0768,-2.0736,-2.0736,-2.0736,-2.0735,0,0,-2.0903,-2.0878,-2.088,-2.0872,-2.0856,-2.0853,-2.0853,-2.0844,-2.0841,-2.0832,-2.083,-2.0824,-2.0812,-2.0806,-2.0794,-2.0795,-2.0809,-2.0783,-2.0782,-2.0787,-2.0816,-2.0824,-2.0827,-2.08,-2.0801,-2.0801,-2.0816,0,-2.0926,-2.0925,-2.0907,-2.091,-2.0907,-2.0885,-2.0885,-2.0874,-2.0862,-2.0857,-2.0844,-2.0839,-2.0825,-2.0821,-2.0821,-2.0808,-2.0815,-2.0806,-2.0797,-2.0797,-2.08,-2.0829,-2.0838,-2.0854,-2.0818,-2.0818,-2.0819,0,-2.0953,-2.0944,-2.0947,-2.0928,-2.0926,-2.0926,-2.0914,-2.091,-2.0896,-2.0887,-2.088,-2.0865,-2.0862,-2.0848,-2.0843,-2.0838,-2.0833,-2.0825,-2.0825,-2.0823,-2.0809,-2.0827,-2.0858,-2.086,-2.0822,-2.0821,-2.0821,0,-2.0985,-2.0974,-2.0973,-2.0968,-2.0946,-2.0946,-2.0937,-2.0922,-2.0917,-2.0907,-2.0902,-2.0892,-2.0887,-2.0879,-2.0861,-2.0853,-2.0857,-2.0842,-2.0848,-2.0849,-2.085,-2.085,-2.088,-2.0849,-2.0849,-2.0849,-2.0849,0,-2.1012,-2.1014,-2.0987,-2.0986,-2.0987,-2.0967,-2.0968,-2.0957,-2.0943,-2.0939,-2.092,-2.0917,-2.0894,-2.0887,-2.0873,-2.087,-2.0868,-2.086,-2.0856,-2.0861,-2.0862,-2.0857,-2.0856,-2.0849,-2.0849,-2.0849,-2.0849,0,-2.1048,-2.103,-2.1028,-2.1006,-2.1001,-2.1002,-2.0983,-2.0981,-2.0968,-2.0963,-2.0961,-2.0939,-2.093,-2.0912,-2.0898,-2.0888,-2.0888,-2.0882,-2.0893,-2.089,-2.0897,-2.0896,-2.0924,-2.0926,-2.0894,-2.0895,-2.0895,0,-2.1066,-2.1067,-2.1045,-2.1041,-2.1032,-2.1026,-2.102,-2.0999,-2.0993,-2.0976,-2.0976,-2.0965,-2.0955,-2.0942,-2.0925,-2.0914,-2.0906,-2.0917,-2.0905,-2.0909,-2.0905,-2.0905,-2.0904,-2.092,-2.092,-2.0921,-2.0921,0,-2.11,-2.109,-2.1082,-2.107,-2.1063,-2.1053,-2.1042,-2.1039,-2.1015,-2.1009,-2.1,-2.0992,-2.0977,-2.0966,-2.0952,-2.0942,-2.0927,-2.0925,-2.0925,-2.093,-2.0936,-2.0931,-2.0899,-2.0924,-2.0924,-2.0924,-2.0923,-2.0923,-2.1126,-2.1125,-2.1109,-2.11,-2.1088,-2.1078,-2.1074,-2.1059,-2.1051,-2.1037,-2.1025,-2.1016,-2.0999,-2.0979,-2.0969,-2.0961,-2.0954,-2.0955,-2.0955,-2.0956,-2.0957,-2.0938,-2.0958,-2.0958,-2.0958,-2.0958,-2.0958,0,-2.1157,-2.1145,-2.1137,-2.1121,-2.1113,-2.11,-2.1086,-2.108,-2.1072,-2.1058,-2.1049,-2.1036,-2.1025,-2.1006,-2.0993,-2.099,-2.0983,-2.0987,-2.0987,-2.0984,-2.0965,-2.0965,-2.0993,-2.0993,-2.0993,-2.0993,-2.0993,-2.0993,-2.1173,-2.1169,-2.1157,-2.1147,-2.1135,-2.1125,-2.1118,-2.1108,-2.1096,-2.1083,-2.1073,-2.1061,-2.1044,-2.103,-2.1018,-2.1013,-2.1008,-2.1015,-2.1007,-2.0989,-2.0986,-2.0983,-2.0983,-2.1014,-2.1014,-2.1027,-2.1027,-2.1027]}]]